| time (UTC) | temp F | wind direction | speed knots | gust knots | rain 1hr in | rain 24hr in | rain mn in | humidity % | barometer mb |
| 20260504081916 | 55 | 202 | 1.7 | 1.7 | 0.00 | 0.00 | 0.00 | 45 | 995.6 |
| 20260504081413 | 55 | 231 | 1.7 | 1.7 | 0.00 | 0.00 | 0.00 | 46 | 995.9 |
| 20260504080909 | 55 | 204 | 1.7 | 1.7 | 0.00 | 0.00 | 0.00 | 45 | 996.2 |
| 20260504080406 | 55 | 194 | 0.0 | 0.9 | 0.00 | 0.00 | 0.00 | 46 | 996.4 |
| 20260504070333 | 55 | 220 | 0.9 | 0.9 | 0.00 | 0.00 | 0.00 | 48 | 997.1 |
| 20260504050721 | 56 | 199 | 0.9 | 0.9 | 0.00 | 0.00 | 0.00 | 44 | 999.6 |
| 20260504050218 | 56 | 215 | 0.9 | 1.7 | 0.00 | 0.00 | 0.00 | 45 | 999.8 |
| 20260504045715 | 56 | 204 | 0.9 | 0.9 | 0.00 | 0.00 | 0.00 | 46 | 1000.0 |
| 20260504045215 | 57 | 207 | 0.9 | 1.7 | 0.00 | 0.00 | 0.00 | 45 | 1000.0 |
| 20260504044714 | 56 | 219 | 0.9 | 1.7 | 0.00 | 0.00 | 0.00 | 45 | 1000.0 |
| 20260504044211 | 56 | 208 | 1.7 | 1.7 | 0.00 | 0.00 | 0.00 | 44 | 1000.1 |
| 20260504043708 | 57 | 199 | 0.9 | 1.7 | 0.00 | 0.00 | 0.00 | 45 | 1000.3 |
| 20260504043204 | 57 | 203 | 0.9 | 0.9 | 0.00 | 0.00 | 0.00 | 44 | 1000.3 |
| 20260504042702 | 57 | 206 | 0.9 | 0.9 | 0.00 | 0.00 | 0.00 | 44 | 1000.4 |
| 20260504042158 | 57 | 214 | 0.9 | 0.9 | 0.00 | 0.00 | 0.00 | 44 | 1000.4 |
| 20260504041654 | 57 | 200 | 0.9 | 1.7 | 0.00 | 0.00 | 0.00 | 43 | 1000.4 |
| 20260504041150 | 57 | 201 | 0.9 | 1.7 | 0.00 | 0.00 | 0.00 | 43 | 1000.6 |
| 20260504040647 | 57 | 208 | 1.7 | 1.7 | 0.00 | 0.00 | 0.00 | 43 | 1000.8 |
| 20260504040144 | 56 | 212 | 0.9 | 0.9 | 0.00 | 0.00 | 0.00 | 45 | 1000.9 |
| 20260504035641 | 55 | 212 | 0.9 | 0.9 | 0.00 | 0.00 | 0.00 | 45 | 1000.8 |
| 20260504035138 | 53 | 202 | 0.9 | 0.9 | 0.00 | 0.00 | 0.00 | 48 | 1001.1 |
| 20260504034635 | 54 | 211 | 0.9 | 0.9 | 0.00 | 0.00 | 0.00 | 54 | 1001.1 |
| 20260504034132 | 53 | 208 | 0.9 | 0.9 | 0.00 | 0.00 | 0.00 | 52 | 1001.3 |
| 20260504033630 | 53 | 196 | 0.9 | 0.9 | 0.00 | 0.00 | 0.00 | 55 | 1001.2 |
| 20260504033127 | 52 | 199 | 0.9 | 0.9 | 0.00 | 0.00 | 0.00 | 53 | 1001.6 |
| 20260504032624 | 52 | 198 | 0.9 | 0.9 | 0.00 | 0.00 | 0.00 | 56 | 1001.6 |
| 20260504032121 | 52 | 205 | 0.9 | 0.9 | 0.00 | 0.00 | 0.00 | 57 | 1001.7 |
| 20260504031618 | 53 | 200 | 0.9 | 0.9 | 0.00 | 0.00 | 0.00 | 55 | 1001.8 |
| 20260504031114 | 52 | 211 | 0.9 | 0.9 | 0.00 | 0.00 | 0.00 | 56 | 1001.8 |
| 20260504030611 | 52 | 213 | 0.9 | 0.9 | 0.00 | 0.00 | 0.00 | 59 | 1001.9 |
| 20260504030108 | 52 | 208 | 0.9 | 0.9 | 0.00 | 0.00 | 0.00 | 56 | 1001.9 |
| 20260504025605 | 53 | 213 | 0.0 | 0.9 | 0.00 | 0.00 | 0.00 | 59 | 1002.0 |
| 20260504025102 | 53 | 206 | 0.9 | 0.9 | 0.00 | 0.00 | 0.00 | 56 | 1002.0 |
| 20260504024559 | 53 | 212 | 0.0 | 0.0 | 0.00 | 0.00 | 0.00 | 59 | 1002.1 |
| 20260504024055 | 54 | 205 | 0.0 | 0.9 | 0.00 | 0.00 | 0.00 | 54 | 1002.0 |
| 20260504023552 | 55 | 203 | 0.9 | 0.9 | 0.00 | 0.00 | 0.00 | 54 | 1002.0 |
| 20260504023048 | 55 | 203 | 0.0 | 0.9 | 0.00 | 0.00 | 0.00 | 49 | 1002.0 |
| 20260504022544 | 55 | 200 | 0.0 | 0.0 | 0.00 | 0.00 | 0.00 | 53 | 1001.9 |
| 20260504022040 | 56 | 209 | 0.0 | 0.0 | 0.00 | 0.00 | 0.00 | 53 | 1002.1 |
| 20260504021538 | 56 | 206 | 0.0 | 0.0 | 0.00 | 0.00 | 0.00 | 48 | 1002.1 |
| 20260504021035 | 57 | 206 | 0.0 | 0.0 | 0.00 | 0.00 | 0.00 | 48 | 1002.1 |
| 20260504020532 | 58 | 204 | 0.0 | 0.0 | 0.00 | 0.00 | 0.00 | 48 | 1002.0 |
| 20260504020028 | 59 | 206 | 0.0 | 0.9 | 0.00 | 0.00 | 0.00 | 43 | 1002.1 |
| 20260504015524 | 60 | 209 | 0.0 | 0.0 | 0.00 | 0.00 | 0.00 | 41 | 1002.2 |
| 20260504015020 | 61 | 216 | 0.0 | 0.0 | 0.00 | 0.00 | 0.00 | 38 | 1002.0 |
| 20260504014517 | 62 | 221 | 0.9 | 0.9 | 0.00 | 0.00 | 0.00 | 36 | 1002.2 |
| 20260504014014 | 62 | 223 | 0.0 | 0.9 | 0.00 | 0.00 | 0.00 | 36 | 1002.2 |
| 20260504013512 | 62 | 234 | 0.9 | 0.9 | 0.00 | 0.00 | 0.00 | 35 | 1002.2 |
| 20260504013009 | 62 | 226 | 0.9 | 0.9 | 0.00 | 0.00 | 0.00 | 36 | 1002.2 |
| 20260504012506 | 63 | 203 | 0.0 | 0.9 | 0.00 | 0.00 | 0.00 | 39 | 1002.3 |
| 20260504012004 | 64 | 225 | 0.0 | 0.9 | 0.00 | 0.00 | 0.00 | 34 | 1002.2 |
| 20260504011500 | 64 | 234 | 0.0 | 0.0 | 0.00 | 0.00 | 0.00 | 33 | 1002.1 |
| 20260504010956 | 65 | 234 | 0.9 | 0.9 | 0.00 | 0.00 | 0.00 | 32 | 1002.1 |
| 20260504010452 | 65 | 249 | 0.9 | 1.7 | 0.00 | 0.00 | 0.00 | 31 | 1002.3 |
| 20260504005948 | 66 | 239 | 0.9 | 0.9 | 0.00 | 0.00 | 0.00 | 30 | 1002.2 |
| 20260504005445 | 66 | 230 | 0.0 | 0.9 | 0.00 | 0.00 | 0.00 | 30 | 1002.3 |
| 20260504004943 | 67 | 257 | 0.9 | 1.7 | 0.00 | 0.00 | 0.00 | 29 | 1002.6 |
| 20260504004440 | 67 | 256 | 1.7 | 1.7 | 0.00 | 0.00 | 0.00 | 29 | 1002.2 |
| 20260504003937 | 67 | 249 | 0.9 | 1.7 | 0.00 | 0.00 | 0.00 | 29 | 1002.4 |
| 20260504003433 | 67 | 265 | 0.9 | 1.7 | 0.00 | 0.00 | 0.00 | 29 | 1002.4 |
| 20260504002930 | 67 | 250 | 0.9 | 0.9 | 0.00 | 0.00 | 0.00 | 28 | 1002.3 |
| 20260504002427 | 67 | 244 | 0.9 | 0.9 | 0.00 | 0.00 | 0.00 | 28 | 1002.4 |
| 20260504001924 | 67 | 237 | 0.9 | 0.9 | 0.00 | 0.00 | 0.00 | 28 | 1002.4 |
| 20260504001422 | 67 | 266 | 1.7 | 1.7 | 0.00 | 0.00 | 0.00 | 27 | 1002.4 |
| 20260504000918 | 68 | 282 | 1.7 | 1.7 | 0.00 | 0.00 | 0.00 | 28 | 1002.6 |
| 20260504000416 | 67 | 259 | 2.6 | 2.6 | 0.00 | 0.00 | 0.00 | 26 | 1002.6 |
| 20260503235913 | 68 | 281 | 3.5 | 4.3 | 0.00 | 0.00 | 0.00 | 26 | 1002.6 |
| 20260503235411 | 68 | 290 | 2.6 | 2.6 | 0.00 | 0.00 | 0.00 | 25 | 1002.6 |
| 20260503234908 | 68 | 304 | 4.3 | 5.2 | 0.00 | 0.00 | 0.00 | 25 | 1002.7 |
| 20260503234405 | 69 | 206 | 3.5 | 5.2 | 0.00 | 0.00 | 0.00 | 25 | 1002.6 |
| 20260503233903 | 68 | 231 | 2.6 | 4.3 | 0.00 | 0.00 | 0.00 | 27 | 1002.6 |
| 20260503233359 | 68 | 293 | 4.3 | 5.2 | 0.00 | 0.00 | 0.00 | 25 | 1002.7 |
| 20260503232855 | 69 | 298 | 4.3 | 5.2 | 0.00 | 0.00 | 0.00 | 28 | 1002.6 |
| 20260503232353 | 68 | 315 | 3.5 | 4.3 | 0.00 | 0.00 | 0.00 | 28 | 1002.9 |
| 20260503231851 | 68 | 279 | 2.6 | 2.6 | 0.00 | 0.00 | 0.00 | 27 | 1002.8 |
| 20260503231347 | 69 | 297 | 3.5 | 4.3 | 0.00 | 0.00 | 0.00 | 26 | 1002.9 |
| 20260503230844 | 69 | 288 | 3.5 | 4.3 | 0.00 | 0.00 | 0.00 | 26 | 1002.6 |
| 20260503230340 | 69 | 279 | 2.6 | 4.3 | 0.00 | 0.00 | 0.00 | 26 | 1002.8 |
| 20260503225839 | 69 | 294 | 3.5 | 4.3 | 0.00 | 0.00 | 0.00 | 26 | 1002.9 |
| 20260503225334 | 69 | 316 | 4.3 | 6.1 | 0.00 | 0.00 | 0.00 | 26 | 1002.7 |
| 20260503224831 | 68 | 335 | 5.2 | 7.0 | 0.00 | 0.00 | 0.00 | 26 | 1002.8 |
| 20260503224328 | 68 | 261 | 3.5 | 4.3 | 0.00 | 0.00 | 0.00 | 26 | 1003.0 |
| 20260503223826 | 69 | 274 | 3.5 | 4.3 | 0.00 | 0.00 | 0.00 | 26 | 1003.0 |
| 20260503223323 | 69 | 287 | 4.3 | 5.2 | 0.00 | 0.00 | 0.00 | 25 | 1003.1 |
| 20260503222819 | 69 | 296 | 5.2 | 6.1 | 0.00 | 0.00 | 0.00 | 26 | 1003.1 |
| 20260503222317 | 69 | 283 | 3.5 | 4.3 | 0.00 | 0.00 | 0.00 | 27 | 1002.8 |
| 20260503221815 | 68 | 289 | 4.3 | 5.2 | 0.00 | 0.00 | 0.00 | 27 | 1003.0 |
| 20260503221314 | 68 | 289 | 3.5 | 4.3 | 0.00 | 0.00 | 0.00 | 27 | 1003.1 |
| 20260503220809 | 68 | 291 | 2.6 | 2.6 | 0.00 | 0.00 | 0.00 | 27 | 1003.2 |
| 20260503220306 | 69 | 320 | 4.3 | 6.1 | 0.00 | 0.00 | 0.00 | 27 | 1003.3 |
| 20260503215803 | 69 | 274 | 2.6 | 2.6 | 0.00 | 0.00 | 0.00 | 26 | 1003.1 |
| 20260503215300 | 69 | 202 | 0.9 | 1.7 | 0.00 | 0.00 | 0.00 | 27 | 1003.5 |
| 20260503214758 | 69 | 300 | 4.3 | 5.2 | 0.00 | 0.00 | 0.00 | 25 | 1003.4 |
| 20260503214254 | 69 | 314 | 4.3 | 6.1 | 0.00 | 0.00 | 0.00 | 24 | 1003.5 |
| 20260503213752 | 68 | 298 | 3.5 | 4.3 | 0.00 | 0.00 | 0.00 | 25 | 1003.6 |
| 20260503213249 | 68 | 277 | 2.6 | 4.3 | 0.00 | 0.00 | 0.00 | 26 | 1003.6 |
| 20260503212746 | 68 | 316 | 3.5 | 5.2 | 0.00 | 0.00 | 0.00 | 25 | 1003.7 |
| 20260503212244 | 68 | 9 | 5.2 | 7.0 | 0.00 | 0.00 | 0.00 | 25 | 1003.8 |
| 20260503211741 | 68 | 336 | 4.3 | 5.2 | 0.00 | 0.00 | 0.00 | 26 | 1003.6 |
| 20260503211237 | 69 | 319 | 4.3 | 6.1 | 0.00 | 0.00 | 0.00 | 24 | 1003.8 |
| 20260503210733 | 69 | 341 | 2.6 | 2.6 | 0.00 | 0.00 | 0.00 | 26 | 1003.9 |
| 20260503210231 | 68 | 349 | 6.1 | 7.8 | 0.00 | 0.00 | 0.00 | 24 | 1003.9 |
| 20260503205726 | 69 | 320 | 3.5 | 4.3 | 0.00 | 0.00 | 0.00 | 25 | 1004.1 |
| 20260503205222 | 68 | 322 | 4.3 | 5.2 | 0.00 | 0.00 | 0.00 | 24 | 1004.2 |
| 20260503204719 | 68 | 355 | 7.0 | 9.6 | 0.00 | 0.00 | 0.00 | 25 | 1004.4 |
| 20260503204217 | 68 | 24 | 2.6 | 2.6 | 0.00 | 0.00 | 0.00 | 27 | 1004.0 |
| 20260503203713 | 68 | 1 | 7.8 | 8.7 | 0.00 | 0.00 | 0.00 | 25 | 1004.3 |
| 20260503203211 | 68 | 39 | 6.1 | 7.0 | 0.00 | 0.00 | 0.00 | 26 | 1004.2 |
| 20260503202708 | 68 | 289 | 4.3 | 5.2 | 0.00 | 0.00 | 0.00 | 27 | 1004.2 |
| 20260503202206 | 68 | 336 | 4.3 | 7.0 | 0.00 | 0.00 | 0.00 | 26 | 1004.4 |
| 20260503201704 | 68 | 246 | 1.7 | 2.6 | 0.00 | 0.00 | 0.00 | 28 | 1004.3 |
| 20260503201201 | 68 | 289 | 2.6 | 2.6 | 0.00 | 0.00 | 0.00 | 26 | 1004.4 |
| 20260503200657 | 68 | 293 | 5.2 | 6.1 | 0.00 | 0.00 | 0.00 | 28 | 1004.4 |
| 20260503200154 | 68 | 17 | 6.1 | 7.0 | 0.00 | 0.00 | 0.00 | 24 | 1004.4 |
| 20260503195650 | 68 | 19 | 7.0 | 7.8 | 0.00 | 0.00 | 0.00 | 25 | 1004.5 |
| 20260503195147 | 67 | 301 | 4.3 | 5.2 | 0.00 | 0.00 | 0.00 | 29 | 1004.6 |
| 20260503194644 | 67 | 28 | 2.6 | 4.3 | 0.00 | 0.00 | 0.00 | 29 | 1004.7 |
| 20260503194140 | 68 | 44 | 3.5 | 4.3 | 0.00 | 0.00 | 0.00 | 28 | 1004.6 |
| 20260503193637 | 67 | 37 | 7.0 | 7.8 | 0.00 | 0.00 | 0.00 | 27 | 1004.5 |
| 20260503193132 | 66 | 348 | 2.6 | 4.3 | 0.00 | 0.00 | 0.00 | 33 | 1004.6 |
| 20260503192628 | 67 | 347 | 4.3 | 5.2 | 0.00 | 0.00 | 0.00 | 31 | 1004.7 |
| 20260503192124 | 67 | 25 | 6.1 | 9.6 | 0.00 | 0.00 | 0.00 | 32 | 1004.8 |
| 20260503191621 | 67 | 38 | 5.2 | 7.0 | 0.00 | 0.00 | 0.00 | 32 | 1004.8 |
| 20260503191118 | 68 | 4 | 7.8 | 9.6 | 0.00 | 0.00 | 0.00 | 31 | 1005.0 |
| 20260503190615 | 66 | 19 | 7.0 | 11.3 | 0.00 | 0.00 | 0.00 | 33 | 1004.9 |
| 20260503190112 | 67 | 27 | 6.1 | 7.8 | 0.00 | 0.00 | 0.00 | 30 | 1005.0 |
| 20260503185609 | 66 | 5 | 5.2 | 7.0 | 0.00 | 0.00 | 0.00 | 31 | 1004.9 |
| 20260503185109 | 66 | 310 | 5.2 | 6.1 | 0.00 | 0.00 | 0.00 | 31 | 1005.1 |
| 20260503184604 | 67 | 28 | 6.1 | 6.1 | 0.00 | 0.00 | 0.00 | 30 | 1005.1 |
| 20260503184101 | 67 | 340 | 5.2 | 6.1 | 0.00 | 0.00 | 0.00 | 30 | 1005.2 |
| 20260503183557 | 66 | 44 | 6.1 | 7.8 | 0.00 | 0.00 | 0.00 | 31 | 1005.2 |
| 20260503183055 | 67 | 16 | 4.3 | 7.0 | 0.00 | 0.00 | 0.00 | 33 | 1005.1 |
| 20260503182553 | 67 | 13 | 10.4 | 12.2 | 0.00 | 0.00 | 0.00 | 30 | 1005.2 |
| 20260503182051 | 67 | 319 | 3.5 | 4.3 | 0.00 | 0.00 | 0.00 | 32 | 1005.2 |
| 20260503181547 | 66 | 337 | 2.6 | 2.6 | 0.00 | 0.00 | 0.00 | 34 | 1005.1 |
| 20260503181044 | 66 | 301 | 5.2 | 6.1 | 0.00 | 0.00 | 0.00 | 31 | 1005.4 |
| 20260503180541 | 66 | 20 | 6.1 | 7.8 | 0.00 | 0.00 | 0.00 | 31 | 1005.3 |
| 20260503180038 | 66 | 2 | 6.1 | 6.1 | 0.00 | 0.00 | 0.00 | 31 | 1005.6 |
| 20260503175536 | 66 | 9 | 4.3 | 5.2 | 0.00 | 0.00 | 0.00 | 31 | 1005.5 |
| 20260503175033 | 66 | 321 | 6.1 | 7.8 | 0.00 | 0.00 | 0.00 | 31 | 1005.4 |
| 20260503174530 | 65 | 282 | 4.3 | 5.2 | 0.00 | 0.00 | 0.00 | 31 | 1005.3 |
| 20260503174026 | 65 | 327 | 4.3 | 5.2 | 0.00 | 0.00 | 0.00 | 34 | 1005.6 |
| 20260503173521 | 65 | 356 | 4.3 | 6.1 | 0.00 | 0.00 | 0.00 | 35 | 1005.5 |
| 20260503173018 | 65 | 6 | 4.3 | 5.2 | 0.00 | 0.00 | 0.00 | 37 | 1005.5 |
| 20260503172516 | 65 | 315 | 6.1 | 7.8 | 0.00 | 0.00 | 0.00 | 37 | 1005.5 |
| 20260503172012 | 66 | 329 | 7.0 | 8.7 | 0.00 | 0.00 | 0.00 | 36 | 1005.5 |
| 20260503171509 | 65 | 37 | 4.3 | 7.0 | 0.00 | 0.00 | 0.00 | 40 | 1005.8 |
| 20260503171006 | 65 | 5 | 4.3 | 6.1 | 0.00 | 0.00 | 0.00 | 39 | 1005.7 |
| 20260503170503 | 65 | 350 | 7.8 | 8.7 | 0.00 | 0.00 | 0.00 | 38 | 1005.7 |
| 20260503150855 | 62 | 339 | 3.5 | 4.3 | 0.00 | 0.00 | 0.00 | 48 | 1005.2 |
| 20260503150351 | 61 | 347 | 6.1 | 7.8 | 0.00 | 0.00 | 0.00 | 48 | 1005.3 |
| 20260503140315 | 58 | 27 | 3.5 | 4.3 | 0.00 | 0.00 | 0.00 | 51 | 1005.3 |
| 20260503131245 | 55 | 333 | 7.8 | 8.7 | 0.00 | 0.00 | 0.00 | 57 | 1004.6 |
| 20260503130742 | 54 | 353 | 8.7 | 9.6 | 0.00 | 0.00 | 0.00 | 58 | 1004.9 |
| 20260503130240 | 54 | 28 | 4.3 | 6.1 | 0.00 | 0.00 | 0.00 | 59 | 1004.6 |
| 20260503120206 | 50 | 256 | 0.9 | 1.7 | 0.00 | 0.00 | 0.00 | 60 | 1003.7 |
| 20260503110633 | 50 | 223 | 0.0 | 0.9 | 0.00 | 0.00 | 0.00 | 59 | 1003.0 |
| 20260503110130 | 50 | 255 | 0.9 | 0.9 | 0.00 | 0.00 | 0.00 | 58 | 1003.0 |